Time,TemperatureF,DewpointF,PressureIn,WindDirection,WindDirectionDegrees,WindSpeedMPH,WindSpeedGustMPH,Humidity,HourlyPrecipIn,Conditions,Clouds,dailyrainin,SolarRadiationWatts/m^2,SoftwareType,DateUTC
2013-03-20 00:22:00,27.0,27.0,-100.00,SSW,212,5.0,6.0,100,0.00,,,0.09,0.000000,,2013-03-20 08:22:00,
2013-03-20 00:32:00,27.0,27.0,-100.00,SSW,212,5.0,6.0,100,0.00,,,0.09,0.000000,,2013-03-20 08:32:00,
2013-03-20 00:42:00,27.0,27.0,-100.00,SSW,212,5.0,6.0,100,0.00,,,0.09,0.000000,,2013-03-20 08:42:00,
2013-03-20 00:51:00,27.0,27.0,-100.00,SSW,212,5.0,6.0,100,0.00,,,0.09,0.000000,,2013-03-20 08:51:00,
2013-03-20 01:22:00,27.0,27.0,-100.00,SW,233,5.0,8.0,100,0.00,,,0.09,0.000000,,2013-03-20 09:22:00,
2013-03-20 01:32:00,27.0,27.0,-100.00,SW,233,5.0,8.0,100,0.00,,,0.09,0.000000,,2013-03-20 09:32:00,
2013-03-20 01:43:00,27.0,27.0,-100.00,SW,233,5.0,8.0,100,0.00,,,0.09,0.000000,,2013-03-20 09:43:00,
2013-03-20 01:52:00,27.0,27.0,-100.00,SW,233,5.0,8.0,100,0.00,,,0.09,0.000000,,2013-03-20 09:52:00,
2013-03-20 02:22:00,26.0,26.0,-100.00,SW,231,4.0,7.0,100,0.00,,,0.09,0.000000,,2013-03-20 10:22:00,
2013-03-20 02:32:00,26.0,26.0,-100.00,SW,231,4.0,7.0,100,0.00,,,0.09,0.000000,,2013-03-20 10:32:00,
2013-03-20 02:42:00,26.0,26.0,-100.00,SW,231,4.0,7.0,100,0.00,,,0.09,0.000000,,2013-03-20 10:42:00,
2013-03-20 02:52:00,26.0,26.0,-100.00,SW,231,4.0,7.0,100,0.00,,,0.09,0.000000,,2013-03-20 10:52:00,
2013-03-20 03:22:00,25.0,25.0,-100.00,SW,231,4.0,8.0,100,0.00,,,0.09,0.000000,,2013-03-20 11:22:00,
2013-03-20 03:32:00,25.0,25.0,-100.00,SW,231,4.0,8.0,100,0.00,,,0.09,0.000000,,2013-03-20 11:32:00,
2013-03-20 03:42:00,25.0,25.0,-100.00,SW,231,4.0,8.0,100,0.00,,,0.09,0.000000,,2013-03-20 11:42:00,
2013-03-20 03:52:00,25.0,25.0,-100.00,SW,231,4.0,8.0,100,0.00,,,0.09,0.000000,,2013-03-20 11:52:00,
2013-03-20 04:22:00,26.0,26.0,-100.00,South,187,6.0,12.0,100,0.00,,,0.09,0.000000,,2013-03-20 12:22:00,
2013-03-20 04:32:00,26.0,26.0,-100.00,South,187,6.0,12.0,100,0.00,,,0.09,0.000000,,2013-03-20 12:32:00,
2013-03-20 04:42:00,26.0,26.0,-100.00,South,187,6.0,12.0,100,0.00,,,0.09,0.000000,,2013-03-20 12:42:00,
2013-03-20 04:52:00,26.0,26.0,-100.00,South,187,6.0,12.0,100,0.00,,,0.09,0.000000,,2013-03-20 12:52:00,
2013-03-20 05:22:00,26.0,26.0,-100.00,SW,233,7.0,13.0,100,0.00,,,0.09,0.000000,,2013-03-20 13:22:00,
2013-03-20 05:32:00,26.0,26.0,-100.00,SW,233,7.0,13.0,100,0.00,,,0.09,0.000000,,2013-03-20 13:32:00,
2013-03-20 05:42:00,26.0,26.0,-100.00,SW,233,7.0,13.0,100,0.00,,,0.09,0.000000,,2013-03-20 13:42:00,
2013-03-20 05:52:00,26.0,26.0,-100.00,SW,233,7.0,13.0,100,0.00,,,0.09,0.000000,,2013-03-20 13:52:00,
2013-03-20 06:22:00,26.0,26.0,-100.00,SSW,194,4.0,13.0,100,0.00,,,0.09,0.000000,,2013-03-20 14:22:00,
2013-03-20 06:33:00,26.0,26.0,-100.00,SSW,194,4.0,13.0,100,0.00,,,0.09,0.000000,,2013-03-20 14:33:00,
2013-03-20 06:42:00,26.0,26.0,-100.00,SSW,194,4.0,13.0,100,0.00,,,0.09,0.000000,,2013-03-20 14:42:00,
2013-03-20 06:52:00,26.0,26.0,-100.00,SSW,194,4.0,13.0,100,0.00,,,0.09,0.000000,,2013-03-20 14:52:00,
2013-03-20 07:22:00,25.0,25.0,-100.00,SSW,200,4.0,11.0,100,0.00,,,0.09,0.000000,,2013-03-20 15:22:00,
2013-03-20 07:33:00,25.0,25.0,-100.00,SSW,200,4.0,11.0,100,0.00,,,0.09,0.000000,,2013-03-20 15:33:00,
2013-03-20 07:43:00,25.0,25.0,-100.00,SSW,200,4.0,11.0,100,0.00,,,0.09,0.000000,,2013-03-20 15:43:00,
2013-03-20 07:52:00,25.0,25.0,-100.00,SSW,200,4.0,11.0,100,0.00,,,0.09,0.000000,,2013-03-20 15:52:00,
2013-03-20 08:23:00,26.0,26.0,-100.00,SSW,198,4.0,10.0,100,0.00,,,0.09,7.000000,,2013-03-20 16:23:00,
2013-03-20 08:32:00,26.0,26.0,-100.00,SSW,198,4.0,10.0,100,0.00,,,0.09,7.000000,,2013-03-20 16:32:00,
2013-03-20 08:42:00,26.0,26.0,-100.00,SSW,198,4.0,10.0,100,0.00,,,0.09,7.000000,,2013-03-20 16:42:00,
2013-03-20 08:52:00,26.0,26.0,-100.00,SSW,198,4.0,10.0,100,0.00,,,0.09,7.000000,,2013-03-20 16:52:00,
2013-03-20 09:22:00,30.0,30.0,-100.00,South,176,3.0,11.0,100,0.00,,,0.09,29.000000,,2013-03-20 17:22:00,
2013-03-20 09:32:00,30.0,30.0,-100.00,South,176,3.0,11.0,100,0.00,,,0.09,29.000000,,2013-03-20 17:32:00,
2013-03-20 09:42:00,30.0,30.0,-100.00,South,176,3.0,11.0,100,0.00,,,0.09,29.000000,,2013-03-20 17:42:00,
2013-03-20 09:52:00,30.0,30.0,-100.00,South,176,3.0,11.0,100,0.00,,,0.09,29.000000,,2013-03-20 17:52:00,
2013-03-20 10:22:00,31.0,28.0,-100.00,South,171,6.0,13.0,89,0.00,,,0.09,65.000000,,2013-03-20 18:22:00,
2013-03-20 10:33:00,31.0,28.0,-100.00,South,171,6.0,13.0,89,0.00,,,0.09,65.000000,,2013-03-20 18:33:00,
2013-03-20 10:42:00,31.0,28.0,-100.00,South,171,6.0,13.0,89,0.00,,,0.09,65.000000,,2013-03-20 18:42:00,
2013-03-20 10:52:00,31.0,28.0,-100.00,South,171,6.0,13.0,89,0.00,,,0.09,65.000000,,2013-03-20 18:52:00,
2013-03-20 11:22:00,36.0,31.0,-100.00,SSE,156,5.0,14.0,81,0.04,,,0.13,160.000000,,2013-03-20 19:22:00,
2013-03-20 11:32:00,36.0,31.0,-100.00,SSE,156,5.0,14.0,81,0.04,,,0.13,160.000000,,2013-03-20 19:32:00,
2013-03-20 11:42:00,36.0,31.0,-100.00,SSE,156,5.0,14.0,81,0.04,,,0.13,160.000000,,2013-03-20 19:42:00,
2013-03-20 11:52:00,36.0,31.0,-100.00,SSE,156,5.0,14.0,81,0.04,,,0.13,160.000000,,2013-03-20 19:52:00,
2013-03-20 12:22:00,37.0,30.0,-100.00,SSE,153,2.0,12.0,75,0.05,,,0.18,622.000000,,2013-03-20 20:22:00,
2013-03-20 12:32:00,37.0,30.0,-100.00,SSE,153,2.0,12.0,75,0.05,,,0.18,622.000000,,2013-03-20 20:32:00,
2013-03-20 12:42:00,37.0,30.0,-100.00,SSE,153,2.0,12.0,75,0.05,,,0.18,622.000000,,2013-03-20 20:42:00,
2013-03-20 12:52:00,37.0,30.0,-100.00,SSE,153,2.0,12.0,75,0.05,,,0.18,622.000000,,2013-03-20 20:52:00,
2013-03-20 13:22:00,38.0,30.0,-100.00,ESE,110,2.0,11.0,73,0.03,,,0.21,436.000000,,2013-03-20 21:22:00,
2013-03-20 13:33:00,38.0,30.0,-100.00,ESE,110,2.0,11.0,73,0.03,,,0.21,436.000000,,2013-03-20 21:33:00,
2013-03-20 13:42:00,38.0,30.0,-100.00,ESE,110,2.0,11.0,73,0.03,,,0.21,436.000000,,2013-03-20 21:42:00,
2013-03-20 13:52:00,38.0,30.0,-100.00,ESE,110,2.0,11.0,73,0.03,,,0.21,436.000000,,2013-03-20 21:52:00,
2013-03-20 14:23:00,40.0,30.0,-100.00,ENE,64,3.0,8.0,66,0.04,,,0.25,398.000000,,2013-03-20 22:23:00,
2013-03-20 14:32:00,40.0,30.0,-100.00,ENE,64,3.0,8.0,66,0.04,,,0.25,398.000000,,2013-03-20 22:32:00,
2013-03-20 14:42:00,40.0,30.0,-100.00,ENE,64,3.0,8.0,66,0.04,,,0.25,398.000000,,2013-03-20 22:42:00,
2013-03-20 14:52:00,40.0,30.0,-100.00,ENE,64,3.0,8.0,66,0.04,,,0.25,398.000000,,2013-03-20 22:52:00,
2013-03-20 15:22:00,43.0,29.0,-100.00,SE,142,3.0,11.0,58,0.06,,,0.31,653.000000,,2013-03-20 23:22:00,
2013-03-20 16:22:00,39.0,29.0,-100.00,SE,140,6.0,11.0,67,-99.99,,,0.35,413.000000,,2013-03-21 00:22:00,
2013-03-20 16:32:00,39.0,29.0,-100.00,SE,140,6.0,11.0,67,-99.99,,,0.35,413.000000,,2013-03-21 00:32:00,
2013-03-20 16:42:00,39.0,29.0,-100.00,SE,140,6.0,11.0,67,-99.99,,,0.35,413.000000,,2013-03-21 00:42:00,
2013-03-20 16:52:00,39.0,29.0,-100.00,SE,140,6.0,11.0,67,-99.99,,,0.35,413.000000,,2013-03-21 00:52:00,
2013-03-20 17:22:00,37.0,25.0,-100.00,ESE,112,4.0,13.0,61,0.02,,,0.34,373.000000,,2013-03-21 01:22:00,
2013-03-20 17:32:00,37.0,25.0,-100.00,ESE,112,4.0,13.0,61,0.02,,,0.34,373.000000,,2013-03-21 01:32:00,
2013-03-20 17:42:00,37.0,25.0,-100.00,ESE,112,4.0,13.0,61,0.02,,,0.34,373.000000,,2013-03-21 01:42:00,
2013-03-20 17:52:00,37.0,25.0,-100.00,ESE,112,4.0,13.0,61,0.02,,,0.34,373.000000,,2013-03-21 01:52:00,
2013-03-20 18:22:00,32.0,22.0,-100.00,SW,236,1.0,9.0,65,0.00,,,0.29,182.000000,,2013-03-21 02:22:00,
2013-03-20 18:32:00,32.0,22.0,-100.00,SW,236,1.0,9.0,65,0.00,,,0.29,182.000000,,2013-03-21 02:32:00,
2013-03-20 18:42:00,32.0,22.0,-100.00,SW,236,1.0,9.0,65,0.00,,,0.29,182.000000,,2013-03-21 02:42:00,
2013-03-20 18:51:00,32.0,22.0,-100.00,SW,236,1.0,9.0,65,0.00,,,0.29,182.000000,,2013-03-21 02:51:00,
2013-03-20 19:22:00,27.0,20.0,-100.00,South,187,4.0,9.0,76,0.00,,,0.28,36.000000,,2013-03-21 03:22:00,
2013-03-20 19:32:00,27.0,20.0,-100.00,South,187,4.0,9.0,76,0.00,,,0.28,36.000000,,2013-03-21 03:32:00,
2013-03-20 19:43:00,27.0,20.0,-100.00,South,187,4.0,9.0,76,0.00,,,0.28,36.000000,,2013-03-21 03:43:00,
2013-03-20 19:52:00,27.0,20.0,-100.00,South,187,4.0,9.0,76,0.00,,,0.28,36.000000,,2013-03-21 03:52:00,
2013-03-20 20:22:00,24.0,19.0,-100.00,NW,311,1.0,6.0,82,0.00,,,0.28,2.000000,,2013-03-21 04:22:00,
2013-03-20 20:32:00,24.0,19.0,-100.00,NW,311,1.0,6.0,82,0.00,,,0.28,2.000000,,2013-03-21 04:32:00,
2013-03-20 20:43:00,24.0,19.0,-100.00,NW,311,1.0,6.0,82,0.00,,,0.28,2.000000,,2013-03-21 04:43:00,
2013-03-20 20:52:00,24.0,19.0,-100.00,NW,311,1.0,6.0,82,0.00,,,0.28,2.000000,,2013-03-21 04:52:00,
2013-03-20 21:22:00,23.0,19.0,-100.00,WSW,257,2.0,5.0,85,0.00,,,0.28,0.000000,,2013-03-21 05:22:00,
2013-03-20 21:32:00,23.0,19.0,-100.00,WSW,257,2.0,5.0,85,0.00,,,0.28,0.000000,,2013-03-21 05:32:00,
2013-03-20 21:43:00,23.0,19.0,-100.00,WSW,257,2.0,5.0,85,0.00,,,0.28,0.000000,,2013-03-21 05:43:00,
2013-03-20 21:51:00,23.0,19.0,-100.00,WSW,257,2.0,5.0,85,0.00,,,0.28,0.000000,,2013-03-21 05:51:00,
2013-03-20 22:22:00,23.0,18.0,-100.00,SW,221,1.0,3.0,82,0.00,,,0.28,0.000000,,2013-03-21 06:22:00,
2013-03-20 22:32:00,23.0,18.0,-100.00,SW,221,1.0,3.0,82,0.00,,,0.28,0.000000,,2013-03-21 06:32:00,
2013-03-20 22:42:00,23.0,18.0,-100.00,SW,221,1.0,3.0,82,0.00,,,0.28,0.000000,,2013-03-21 06:42:00,
2013-03-20 22:52:00,23.0,18.0,-100.00,SW,221,1.0,3.0,82,0.00,,,0.28,0.000000,,2013-03-21 06:52:00,
2013-03-20 23:22:00,26.0,21.0,-100.00,SSW,213,3.0,6.0,80,0.00,,,0.28,0.000000,,2013-03-21 07:22:00,
2013-03-20 23:32:00,26.0,21.0,-100.00,SSW,213,3.0,6.0,80,0.00,,,0.28,0.000000,,2013-03-21 07:32:00,
2013-03-20 23:42:00,26.0,21.0,-100.00,SSW,213,3.0,6.0,80,0.00,,,0.28,0.000000,,2013-03-21 07:42:00,
2013-03-20 23:52:00,26.0,21.0,-100.00,SSW,213,3.0,6.0,80,0.00,,,0.28,0.000000,,2013-03-21 07:52:00,